EW5026 Weather Reports


Display with metric or nautical units.
time (UTC)temp
F
wind
direction
speed
MPH
gust
MPH
rain 1hr
in
rain 24hr
in
rain mn
in
humidity
%
barometer
mb
20260504024045 53 171 4.0 5.0 0.00 0.00 0.00 74 1006.5
20260504023549 53 178 3.0 5.0 0.00 0.00 0.00 74 1006.5
20260504023046 53 167 3.0 5.0 0.00 0.00 0.00 74 1006.5
20260504022546 53 167 3.0 5.0 0.00 0.00 0.00 74 1006.5
20260504022044 53 167 3.0 5.0 0.00 0.00 0.00 74 1006.4
20260504021551 54 167 4.0 5.0 0.00 0.00 0.00 73 1006.4
20260504021047 54 163 3.0 4.0 0.00 0.00 0.00 73 1006.4
20260504020544 55 161 3.0 5.0 0.00 0.00 0.00 71 1006.3
20260504020048 55 167 3.0 5.0 0.00 0.00 0.00 70 1006.3
20260504015543 56 159 2.0 5.0 0.00 0.00 0.00 68 1006.3
20260504015145 57 159 3.0 6.0 0.00 0.00 0.00 66 1006.2
20260504014544 58 182 4.0 6.0 0.00 0.00 0.00 65 1006.2
20260504014043 58 198 4.0 6.0 0.00 0.00 0.00 64 1006.2
20260504013543 58 193 4.0 6.0 0.00 0.00 0.00 64 1006.1
20260504013048 59 188 5.0 6.0 0.00 0.00 0.00 63 1006.1
20260504012546 59 191 5.0 7.0 0.00 0.00 0.00 62 1006.1
20260504012044 59 192 4.0 7.0 0.00 0.00 0.00 61 1006.0
20260504011543 60 200 5.0 6.0 0.00 0.00 0.00 60 1006.0
20260504011041 61 194 4.0 8.0 0.00 0.00 0.00 58 1006.0
20260504010541 62 203 4.0 9.0 0.00 0.00 0.00 56 1006.1
20260504010042 63 212 6.0 11.0 0.00 0.00 0.00 54 1006.1
20260504005541 63 205 6.0 12.0 0.00 0.00 0.00 53 1006.1
20260504005042 64 219 7.0 12.0 0.00 0.00 0.00 53 1006.0
20260504004551 64 209 7.0 12.0 0.00 0.00 0.00 51 1006.0
20260504004041 65 225 7.0 13.0 0.00 0.00 0.00 51 1006.1
20260504003541 65 210 10.0 15.0 0.00 0.00 0.00 49 1006.1
20260504003038 65 212 9.0 15.0 0.00 0.00 0.00 50 1006.1
20260504002538 66 228 9.0 16.0 0.00 0.00 0.00 49 1006.2
20260504002042 66 257 11.0 16.0 0.00 0.00 0.00 48 1006.2
20260504001540 66 207 9.0 16.0 0.00 0.00 0.00 47 1006.2
20260504001038 66 223 9.0 17.0 0.00 0.00 0.00 47 1006.2
20260504000537 67 236 9.0 14.0 0.00 0.00 0.00 48 1006.2
20260504000037 67 234 9.0 17.0 0.00 0.00 0.00 46 1006.2
20260503235537 67 225 9.0 17.0 0.00 0.00 0.00 46 1006.2
20260503235041 67 226 9.0 14.0 0.00 0.00 0.00 48 1006.2
20260503234538 67 242 9.0 14.0 0.00 0.00 0.00 47 1006.2
20260503234037 68 225 8.0 17.0 0.00 0.00 0.00 47 1006.2
20260503233537 67 238 10.0 17.0 0.00 0.00 0.00 46 1006.2
20260503233036 67 206 9.0 21.0 0.00 0.00 0.00 46 1006.3
20260503232536 68 263 13.0 22.0 0.00 0.00 0.00 45 1006.3
20260503232035 68 227 12.0 24.0 0.00 0.00 0.00 46 1006.4
20260503231534 68 229 14.0 24.0 0.00 0.00 0.00 45 1006.4
20260503231033 68 257 16.0 23.0 0.00 0.00 0.00 46 1006.5
20260503230531 67 221 13.0 20.0 0.00 0.00 0.00 46 1006.5
20260503230032 66 211 13.0 19.0 0.00 0.00 0.00 47 1006.5
20260503225531 66 195 15.0 21.0 0.00 0.00 0.00 46 1006.7
20260503225030 66 209 13.0 19.0 0.00 0.00 0.00 47 1006.7
20260503224531 67 200 13.0 21.0 0.00 0.00 0.00 46 1006.7
20260503224030 66 221 14.0 22.0 0.00 0.00 0.00 46 1006.7
20260503223531 66 202 13.0 22.0 0.00 0.00 0.00 47 1006.8
20260503223030 66 215 14.0 23.0 0.00 0.00 0.00 47 1006.8
20260503222529 66 211 15.0 24.0 0.00 0.00 0.00 47 1006.8
20260503222028 67 200 18.0 25.0 0.00 0.00 0.00 46 1006.8
20260503221528 66 208 17.0 25.0 0.00 0.00 0.00 47 1006.9
20260503221031 65 197 18.0 25.0 0.00 0.00 0.00 47 1006.9
20260503220528 65 215 17.0 25.0 0.00 0.00 0.00 47 1006.8
20260503220033 65 206 14.0 23.0 0.00 0.00 0.00 47 1007.0
20260503215527 66 197 16.0 25.0 0.00 0.00 0.00 47 1007.0
20260503215026 66 210 18.0 28.0 0.00 0.00 0.00 46 1007.0
20260503214526 66 206 17.0 28.0 0.00 0.00 0.00 46 1007.0
20260503214026 66 203 19.0 25.0 0.00 0.00 0.00 46 1007.0
20260503213526 65 169 18.0 25.0 0.00 0.00 0.00 46 1007.1
20260503213028 65 198 15.0 26.0 0.00 0.00 0.00 48 1007.1
20260503212525 65 190 15.0 26.0 0.00 0.00 0.00 48 1007.2
20260503212023 65 184 18.0 29.0 0.00 0.00 0.00 47 1007.2
20260503211534 65 198 19.0 29.0 0.00 0.00 0.00 46 1007.4
20260503211022 65 177 15.0 25.0 0.00 0.00 0.00 47 1007.6
20260503210522 65 210 14.0 27.0 0.00 0.00 0.00 46 1007.7
20260503210022 65 199 17.0 27.0 0.00 0.00 0.00 46 1007.8
20260503205529 65 192 16.0 28.0 0.00 0.00 0.00 46 1007.8
20260503205021 66 201 19.0 28.0 0.00 0.00 0.00 44 1007.9
20260503204520 67 198 21.0 28.0 0.00 0.00 0.00 43 1007.9
20260503204019 67 198 18.0 29.0 0.00 0.00 0.00 43 1008.0
20260503203519 66 157 20.0 29.0 0.00 0.00 0.00 45 1008.0
20260503203021 65 215 22.0 30.0 0.00 0.00 0.00 44 1008.1
20260503202520 67 195 18.0 30.0 0.00 0.00 0.00 44 1008.2
20260503202018 66 200 20.0 33.0 0.00 0.00 0.00 43 1008.2
20260503201516 66 199 21.0 33.0 0.00 0.00 0.00 43 1008.3
20260503201017 66 171 21.0 31.0 0.00 0.00 0.00 45 1008.4
20260503200516 66 193 20.0 31.0 0.00 0.00 0.00 44 1008.5
20260503200015 66 187 20.0 28.0 0.00 0.00 0.00 42 1008.6
20260503195517 65 198 20.0 28.0 0.00 0.00 0.00 43 1008.8
20260503195014 66 182 18.0 33.0 0.00 0.00 0.00 45 1008.7
20260503194514 64 203 22.0 33.0 0.00 0.00 0.00 44 1008.9
20260503194014 65 163 23.0 31.0 0.00 0.00 0.00 45 1008.8
20260503193513 65 196 20.0 31.0 0.00 0.00 0.00 44 1008.9
20260503193030 64 179 23.0 33.0 0.00 0.00 0.00 44 1008.9
20260503192511 64 166 19.0 33.0 0.00 0.00 0.00 45 1009.1
20260503192010 65 220 19.0 32.0 0.00 0.00 0.00 44 1009.1
20260503191512 65 213 21.0 32.0 0.00 0.00 0.00 43 1009.3
20260503191009 64 183 20.0 31.0 0.00 0.00 0.00 45 1009.2
20260503190508 63 200 22.0 31.0 0.00 0.00 0.00 45 1009.5
20260503190018 63 178 22.0 31.0 0.00 0.00 0.00 46 1009.5
20260503185506 64 198 19.0 30.0 0.00 0.00 0.00 47 1009.7
20260503185006 64 200 20.0 27.0 0.00 0.00 0.00 46 1009.8
20260503184505 64 181 20.0 27.0 0.00 0.00 0.00 46 1009.8
20260503184003 63 195 17.0 29.0 0.00 0.00 0.00 49 1010.0
20260503183502 62 178 17.0 29.0 0.00 0.00 0.00 49 1010.2
20260503183001 62 177 17.0 28.0 0.00 0.00 0.00 51 1010.2
20260503182603 61 180 18.0 25.0 0.00 0.00 0.00 52 1010.3
20260503182059 61 190 19.0 25.0 0.00 0.00 0.00 51 1010.3
20260503181602 61 186 16.0 24.0 0.00 0.00 0.00 54 1010.6
20260503181056 60 185 16.0 24.0 0.00 0.00 0.00 55 1010.7
20260503180555 60 170 18.0 24.0 0.00 0.00 0.00 53 1010.9
20260503180054 60 192 16.0 23.0 0.00 0.00 0.00 54 1011.1
20260503175553 59 199 13.0 24.0 0.00 0.00 0.00 56 1011.3
20260503175051 59 171 11.0 20.0 0.00 0.00 0.00 58 1011.5
20260503174605 60 182 11.0 19.0 0.00 0.00 0.00 57 1011.8
20260503174050 60 165 13.0 18.0 0.00 0.00 0.00 60 1011.8
20260503173549 59 184 13.0 16.0 0.00 0.00 0.00 61 1012.1
20260503173049 57 185 9.0 17.0 0.00 0.00 0.00 63 1012.3
20260503172547 57 172 9.0 17.0 0.00 0.00 0.00 65 1012.6
20260503172045 56 188 10.0 14.0 0.00 0.00 0.00 62 1012.8
20260503171543 56 201 9.0 17.0 0.00 0.00 0.00 62 1012.9
20260503171042 56 198 7.0 19.0 0.00 0.00 0.00 63 1013.1
20260503170541 56 196 12.0 19.0 0.00 0.00 0.00 60 1013.0
20260503150531 54 196 9.0 17.0 0.00 0.00 0.00 62 1014.4
20260503131017 53 193 14.0 22.0 0.00 0.00 0.00 62 1014.7
20260503130516 53 207 12.0 19.0 0.00 0.00 0.00 64 1014.8
20260503110555 45 192 7.0 12.0 0.00 0.00 0.00 69 1014.7
20260503100105 43 203 7.0 10.0 0.00 0.00 0.00 69 1015.0
20260503081548 42 196 4.0 6.0 0.00 0.00 0.00 72 1015.2
20260503081042 42 197 3.0 6.0 0.00 0.00 0.00 72 1015.2
20260503080542 42 203 4.0 6.0 0.00 0.00 0.00 72 1015.2
20260503072537 41 175 3.0 5.0 0.00 0.00 0.00 76 1015.2
20260503072039 41 178 3.0 5.0 0.00 0.00 0.00 76 1015.3
20260503071541 41 178 3.0 4.0 0.00 0.00 0.00 77 1015.4
20260503071034 41 178 3.0 4.0 0.00 0.00 0.00 76 1015.5
20260503070533 41 178 3.0 4.0 0.00 0.00 0.00 75 1015.4
20260503055022 44 193 5.0 8.0 0.00 0.00 0.00 67 1016.1
20260503054530 44 207 6.0 7.0 0.00 0.00 0.00 67 1016.2
20260503054025 43 195 5.0 7.0 0.00 0.00 0.00 68 1016.2
20260503053521 43 194 4.0 7.0 0.00 0.00 0.00 68 1016.2
20260503053022 44 198 5.0 7.0 0.00 0.00 0.00 68 1016.2
20260503052520 43 194 5.0 7.0 0.00 0.00 0.00 69 1016.3
20260503052026 43 199 5.0 6.0 0.00 0.00 0.00 69 1016.3
20260503051518 43 195 4.0 6.0 0.00 0.00 0.00 70 1016.3
20260503051016 43 187 3.0 5.0 0.00 0.00 0.00 71 1016.4
20260503050516 43 187 3.0 6.0 0.00 0.00 0.00 70 1016.4
20260503050015 44 190 4.0 6.0 0.00 0.00 0.00 68 1016.4
20260503045517 44 190 5.0 7.0 0.00 0.00 0.00 67 1016.5
20260503045015 44 198 5.0 7.0 0.00 0.00 0.00 67 1016.4
20260503044515 44 183 5.0 7.0 0.00 0.00 0.00 67 1016.4
20260503044013 44 194 5.0 7.0 0.00 0.00 0.00 68 1016.4
20260503043515 44 198 4.0 6.0 0.00 0.00 0.00 69 1016.5
20260503043013 43 190 4.0 6.0 0.00 0.00 0.00 71 1016.5
20260503042514 43 163 3.0 5.0 0.00 0.00 0.00 73 1016.5
20260503042013 42 163 3.0 4.0 0.00 0.00 0.00 73 1016.4
20260503041513 42 163 3.0 4.0 0.00 0.00 0.00 73 1016.5
20260503041012 42 163 2.0 4.0 0.00 0.00 0.00 75 1016.5
20260503040516 42 163 3.0 4.0 0.00 0.00 0.00 75 1016.5
20260503040012 42 163 3.0 4.0 0.00 0.00 0.00 78 1016.6
20260503035512 42 163 3.0 4.0 0.00 0.00 0.00 78 1016.6
20260503035014 42 163 3.0 4.0 0.00 0.00 0.00 77 1016.5
20260503034512 42 163 3.0 4.0 0.00 0.00 0.00 77 1016.5
20260503034012 42 163 3.0 5.0 0.00 0.00 0.00 77 1016.5
20260503033511 42 163 3.0 5.0 0.00 0.00 0.00 78 1016.5
20260503033021 42 163 3.0 5.0 0.00 0.00 0.00 78 1016.5
20260503032511 42 163 3.0 5.0 0.00 0.00 0.00 78 1016.6
20260503032011 42 163 3.0 4.0 0.00 0.00 0.00 77 1016.6
20260503031511 43 163 3.0 5.0 0.00 0.00 0.00 78 1016.6
20260503031011 43 163 3.0 5.0 0.00 0.00 0.00 77 1016.6
20260503030515 43 163 3.0 4.0 0.00 0.00 0.00 78 1016.6
20260503030012 43 163 2.0 4.0 0.00 0.00 0.00 78 1016.7
20260503025510 43 163 2.0 4.0 0.00 0.00 0.00 78 1016.6
20260503025010 42 163 2.0 3.0 0.00 0.00 0.00 79 1016.7
20260503024510 42 163 2.0 3.0 0.00 0.00 0.00 79 1016.6